Effective Sunday, March 17, 2024, the National Weather Service National Data Buoy Center will discontinue its Dial-A-Buoy Interactive Voice Response system. For more information, see Service Change Notice 24-06 (PDF).

Station FTPC1 - 9414290 - San Francisco, CA Image indicating link to RSS feed of recent meteorological observations for station FTPC1


Conditions at FTPC1 as of
(8:48 pm PST on 02/24/2024)
0448 GMT on 02/25/2024:
     

Click on the graph icon in the table below to see a time series plot of the last five days of that observation.

5-day plot - Wind Direction Wind Direction (WDIR):SSW ( 210 deg true )
5-day plot - Wind Speed Wind Speed (WSPD): 4.1 kts
5-day plot - Wind Gust Wind Gust (GST): 7.0 kts
5-day plot - Atmospheric Pressure Atmospheric Pressure (PRES):30.03 in
5-day plot - Wind Speed at 10 Meters Wind Speed at 10 meters (WSPD10M): 3.9 kts
5-day plot - Wind Speed at 20 Meters Wind Speed at 20 meters (WSPD20M): 3.9 kts
5-day plot -  Wind Speed, Wind Gust and Atmospheric Pressure Combined plot of Wind Speed, Gust, and Air Pressure
NOS Water Level Observation Network Water Level
Previous observations
TIME
(PST)
5-day plot - Wind Direction
WDIR
 
5-day plot - Wind Speed
WSPD
kts
5-day plot - Wind Gust
GST
kts
5-day plot - Wave Height
WVHT
ft
5-day plot - Dominant Wave Period
DPD
sec
5-day plot - Average Wave Period
APD
sec
5-day plot - Mean Wave Direction
MWD
 
5-day plot - Atmospheric Pressure
PRES
in
5-day plot - Pressure Tendency
PTDY
in
5-day plot - Air Temperature
ATMP
°F
5-day plot - Water Temperature
WTMP
°F
5-day plot - Dew Point
DEWP
°F
5-day plot - Salinity
SAL
psu
5-day plot - Visibility
VIS
nmi
5-day plot - Tide (above MLLW)
TIDE
ft
2024-02-24 08:42 pm SW 4.1 6.0----30.03-------
2024-02-24 08:36 pmSSW 4.1 7.0----30.03-------
2024-02-24 08:30 pm SW 4.1 7.0----30.02- 59.9-----
2024-02-24 08:24 pm SW 5.1 8.0----30.02- 59.7-----
2024-02-24 08:18 pm SW 5.1 7.0----30.02- 59.7-----
2024-02-24 08:12 pm SW 6.0 8.0----30.02- 59.7-----
2024-02-24 08:06 pm SW 6.0 8.0----30.02- 60.1-----
2024-02-24 08:00 pm W 5.1 8.9----30.02+0.02 60.4-----
2024-02-24 07:54 pm SW 4.1 8.0----30.02- 59.7-----
2024-02-24 07:48 pm S 1.0 8.9----30.02- 60.1-----
2024-02-24 07:42 pmWSW 7.0 8.9----30.02- 60.4-----
2024-02-24 07:36 pm SW 5.1 8.0----30.02- 59.9-----
2024-02-24 07:30 pm SW 6.0 8.9----30.02- 59.9-----
2024-02-24 07:24 pm SW 8.9 11.1----30.02- 60.3-----
2024-02-24 07:18 pm SW 7.0 9.9------ 60.1-----
2024-02-24 07:12 pm SW 9.9 12.0------ 60.4-----
2024-02-24 07:06 pmWSW 8.9 11.1------ 60.1-----
2024-02-24 07:00 pm SW 2.9 7.0----30.02+0.02 59.5-----
2024-02-24 06:54 pmWSW 2.9 4.1----30.02- 59.7-----
2024-02-24 06:48 pmWSW 1.9 7.0----30.01- 60.3-----
2024-02-24 06:42 pm SW 8.0 9.9----30.01- 60.6-----
2024-02-24 06:36 pmWSW 4.1 9.9----30.01- 60.8-----
2024-02-24 06:30 pm SW 5.1 7.0----30.01- 61.0-----
2024-02-24 06:24 pmSSW 2.9 7.0----30.01- 61.0-----
2024-02-24 06:18 pm SW 6.0 8.0----30.01-------
2024-02-24 06:12 pmWNW 1.9 1.9----30.01-------
2024-02-24 06:06 pmWSW 1.9 2.9----30.01-------
2024-02-24 06:00 pm-------30.01+0.00------
2024-02-24 05:54 pm-------30.00-------
2024-02-24 05:48 pm- 0.0 2.9----30.00-------
2024-02-24 05:42 pm SW 1.9 4.1----30.00-------
2024-02-24 05:36 pm W 1.9 2.9----30.00-------
2024-02-24 05:30 pm- 0.0 1.9----30.00- 61.7-----
2024-02-24 05:24 pm- 0.0 4.1----30.00- 61.9-----
2024-02-24 05:18 pmWNW 1.9 4.1----30.00- 62.2-----
2024-02-24 05:12 pm- 0.0 5.1----30.00- 62.6-----
2024-02-24 05:06 pm- 0.0 2.9----30.00- 62.2-----
2024-02-24 05:00 pm W 1.0 2.9----30.00-0.02------
2024-02-24 04:54 pm- 0.0 2.9----30.00-------
2024-02-24 04:48 pmENE 1.9 2.9----30.00-------
2024-02-24 04:42 pmNNW 2.9 4.1----30.00-------
2024-02-24 04:36 pmWNW 2.9 6.0----30.00-------
2024-02-24 04:30 pmWNW 4.1 5.1----30.00-------
2024-02-24 04:24 pmWNW 5.1 6.0----30.00-------
2024-02-24 04:18 pm NW 4.1 6.0----30.00- 63.7-----
2024-02-24 04:12 pm NW 4.1 8.0----30.00- 64.4-----
2024-02-24 04:06 pm N 8.0 8.9----30.00- 65.8-----
2024-02-24 04:00 pm N 8.9 9.9----30.00-0.04 65.8-----
2024-02-24 03:54 pm N 8.9 8.9----30.00- 66.4-----
2024-02-24 03:48 pm N 7.0 8.0----30.00- 66.6-----
2024-02-24 03:42 pm N 8.0 8.0----30.00- 66.2-----
2024-02-24 03:36 pm N 7.0 8.0----30.00- 66.6-----
2024-02-24 03:30 pm N 8.0 8.0----30.01-------
2024-02-24 03:24 pm N 7.0 8.0----30.01-------
2024-02-24 03:18 pm N 7.0 8.0----30.01- 65.3-----
2024-02-24 03:12 pm N 6.0 8.0----30.01- 65.3-----
2024-02-24 03:06 pm N 7.0 8.9----30.01- 65.7-----
2024-02-24 03:00 pm N 7.0 8.0----30.01-0.05 65.7-----
2024-02-24 02:54 pm N 7.0 8.0----30.01- 64.8-----
2024-02-24 02:48 pm N 6.0 7.0----30.01- 65.1-----
2024-02-24 02:42 pmNNW 6.0 8.0----30.01- 65.7-----
2024-02-24 02:36 pm N 7.0 8.0----30.02- 65.1-----
2024-02-24 02:30 pm N 6.0 6.0----30.02- 64.8-----
2024-02-24 02:24 pm N 6.0 8.0----30.02- 65.7-----
2024-02-24 02:18 pm N 7.0 8.0----30.02-------
2024-02-24 02:12 pm N 6.0 8.0----30.02-------
2024-02-24 02:06 pm N 7.0 8.0----30.02-------
2024-02-24 02:00 pm N 8.0 8.9----30.02-0.04------
2024-02-24 01:54 pm N 7.0 8.0----30.03-------
2024-02-24 01:48 pm N 7.0 7.0----30.03- 63.9-----
2024-02-24 01:42 pm N 6.0 7.0----30.02- 63.7-----
2024-02-24 01:36 pm N 5.1 7.0----30.02- 63.3-----
2024-02-24 01:30 pm N 6.0 7.0----30.03- 63.5-----
2024-02-24 01:24 pm N 6.0 8.0----30.03- 63.7-----
2024-02-24 01:18 pm N 7.0 8.0----30.03- 63.5-----
2024-02-24 01:12 pm N 8.0 8.9----30.03- 63.5-----
2024-02-24 01:06 pm N 8.0 9.9----30.03- 62.8-----
2024-02-24 01:00 pm-------30.04-0.03 62.8-----
2024-02-24 12:54 pm-------30.04- 62.6-----
2024-02-24 12:48 pm N 11.1 12.0----30.04-------
2024-02-24 12:42 pm N 8.9 12.0----30.05-------
2024-02-24 12:36 pm N 11.1 12.0----30.05-------
2024-02-24 12:30 pm N 8.9 11.1------ 62.1-----
2024-02-24 12:24 pm N 9.9 11.1------ 62.1-----
2024-02-24 12:18 pm-------30.05- 61.9-----
2024-02-24 12:12 pm-------30.06- 61.7-----
2024-02-24 12:06 pm-------30.06- 61.9-----
2024-02-24 12:00 pm N 9.9 12.0----30.06+0.00 61.3-----
2024-02-24 11:54 am N 11.1 12.0----30.06- 61.2-----
2024-02-24 11:48 am N 11.1 12.0----30.06- 61.0-----
2024-02-24 11:42 am N 9.9 12.0----30.06- 61.2-----
2024-02-24 11:36 am N 9.9 12.0----30.06- 61.0-----
2024-02-24 11:30 am N 8.9 12.0----30.06- 60.8-----
2024-02-24 11:24 am N 9.9 11.1----30.06- 60.6-----
2024-02-24 11:18 am N 9.9 12.0----30.06- 60.6-----
2024-02-24 11:12 am N 9.9 12.0----30.06- 60.3-----
2024-02-24 11:06 am N 11.1 12.0----30.06- 60.1-----
2024-02-24 11:00 am N 8.9 12.0----30.06+0.02------
2024-02-24 10:54 am N 9.9 12.0----30.06-------
2024-02-24 10:48 am N 11.1 12.0----30.06-------
2024-02-24 10:42 am N 9.9 11.1----30.06- 59.4-----
2024-02-24 10:36 am N 8.9 11.1----30.06- 58.8-----
2024-02-24 10:30 am N 9.9 11.1----30.06- 59.2-----
2024-02-24 10:24 am N 8.9 12.0----30.06- 59.0-----
2024-02-24 10:18 am N 9.9 11.1----30.06- 58.8-----
2024-02-24 10:12 am N 11.1 13.0----30.06- 59.4-----
2024-02-24 10:06 am N 11.1 12.0----30.07- 59.0-----
2024-02-24 10:00 am N 12.0 14.0----30.06-------
2024-02-24 09:54 am N 11.1 12.0----30.06-------
2024-02-24 09:48 am N 11.1 14.0----30.07-------
2024-02-24 09:42 am N 12.0 13.0----30.07-------
2024-02-24 09:36 am N 11.1 13.0----30.07-------
2024-02-24 09:30 am N 11.1 12.0----30.06- 57.7-----
2024-02-24 09:24 am N 9.9 13.0----30.06- 57.4-----
2024-02-24 09:18 am N 11.1 14.0----30.06- 57.2-----
2024-02-24 09:12 am N 13.0 14.0----30.06- 57.0-----
2024-02-24 09:06 am N 12.0 14.0----30.06- 57.0-----
2024-02-24 09:00 am N 13.0 14.0----30.06+0.01 56.8-----
2024-02-24 08:54 am N 13.0 14.0----30.06- 56.7-----
2024-02-24 08:48 am N 13.0 15.0----30.06-------
2024-02-24 08:42 am N 12.0 15.0----30.06-------
2024-02-24 08:36 am N 12.0 14.0----30.06-------
2024-02-24 08:30 am N 13.0 15.0----30.05-------
2024-02-24 08:24 am N 15.0 15.9----30.05-------
2024-02-24 08:18 am N 13.0 15.0------ 56.3-----
2024-02-24 08:12 am N 12.0 15.0------ 56.3-----
2024-02-24 08:06 am N 14.0 15.9------ 56.3-----
2024-02-24 08:00 am N 13.0 15.0----30.04-------
2024-02-24 07:54 am N 12.0 15.0----30.04-------
2024-02-24 07:48 am N 12.0 14.0----30.04-------
2024-02-24 07:42 am N 13.0 14.0----30.04-------
2024-02-24 07:36 am N 13.0 15.0----30.04-------
2024-02-24 07:30 am N 13.0 14.0----30.05- 55.8-----
2024-02-24 07:24 am N 13.0 14.0----30.04- 55.9-----
2024-02-24 07:18 am N 12.0 13.0----30.04- 56.1-----
2024-02-24 07:12 am N 12.0 14.0----30.04- 56.1-----
2024-02-24 07:06 am N 12.0 14.0----30.04- 56.1-----
2024-02-24 07:00 am N 12.0 14.0------------
2024-02-24 06:54 am N 12.0 14.0------------
2024-02-24 06:48 am N 13.0 14.0----30.04-------
2024-02-24 06:42 am N 13.0 15.0----30.04-------
2024-02-24 06:36 am N 13.0 15.0----30.04-------
2024-02-24 06:30 am N 13.0 15.0----30.04- 56.5-----
2024-02-24 06:24 am N 12.0 14.0----30.04- 56.7-----
2024-02-24 06:18 am N 11.1 13.0----30.04- 56.7-----
2024-02-24 06:12 am N 12.0 14.0----30.04- 56.7-----
2024-02-24 06:06 am N 12.0 14.0----30.05- 56.8-----
2024-02-24 06:00 am N 12.0 14.0----30.05+0.00 57.0-----
2024-02-24 05:54 am N 11.1 14.0----30.05- 57.0-----
2024-02-24 05:48 am N 12.0 14.0------------
2024-02-24 05:42 am N 11.1 13.0------------
2024-02-24 05:36 am N 9.9 12.0------------
2024-02-24 05:30 am N 8.9 11.1----30.05-------
2024-02-24 05:24 amNNE 7.0 11.1----30.05-------
2024-02-24 05:18 am N 8.0 9.9----30.04-------
2024-02-24 05:12 amNNE 7.0 8.9----30.04-------
2024-02-24 05:06 amNNE 6.0 8.9----30.04-------
2024-02-24 05:00 am--------- 56.3-----
2024-02-24 04:54 am--------- 56.3-----
2024-02-24 04:48 am N 9.9 12.0----30.04- 56.3-----
2024-02-24 04:42 am NE 5.1 8.0----30.05- 56.1-----
2024-02-24 04:36 amENE 7.0 8.9----30.05- 55.9-----
2024-02-24 04:30 am NE 7.0 8.0----30.04-------
2024-02-24 04:24 am NE 6.0 8.9----30.04-------
2024-02-24 04:18 amNNE 7.0 8.0----30.04-------
2024-02-24 04:12 am NE 6.0 7.0----30.04-------
2024-02-24 04:06 am NE 6.0 7.0----30.04-------
2024-02-24 04:00 am NE 6.0 8.9----30.05-0.01 55.9-----
2024-02-24 03:54 am NE 4.1 6.0----30.05- 55.9-----
2024-02-24 03:48 am NE 6.0 7.0----30.05-------
2024-02-24 03:42 am NE 6.0 8.9----30.05-------
2024-02-24 03:36 am NE 6.0 8.0----30.05-------
2024-02-24 03:30 amNNE 7.0 9.9----30.05- 56.1-----
2024-02-24 03:24 amNNE 7.0 8.9----30.05- 56.3-----
2024-02-24 03:18 amNNE 8.0 9.9----30.05- 56.3-----
2024-02-24 03:12 am N 8.0 9.9----30.05- 56.3-----
2024-02-24 03:06 am N 8.9 9.9----30.05- 56.1-----
2024-02-24 03:00 am-------30.05-------
2024-02-24 02:54 am-------30.05-------
2024-02-24 02:48 am N 7.0 11.1----30.05- 56.3-----
2024-02-24 02:42 am N 7.0 8.9----30.05- 55.9-----
2024-02-24 02:36 amNNE 7.0 8.0----30.05- 55.9-----
2024-02-24 02:30 am N 7.0 8.9----30.05-------
2024-02-24 02:24 am N 7.0 8.9----30.05-------
2024-02-24 02:18 am-------30.06- 56.3-----
2024-02-24 02:12 am-------30.06- 56.3-----
2024-02-24 02:06 am-------30.06- 56.3-----
2024-02-24 02:00 am-------30.06-0.01------
2024-02-24 01:54 am-------30.06-------
2024-02-24 01:48 amNNE 5.1 7.0----30.06-------
2024-02-24 01:42 am NE 2.9 5.1----30.06-------
2024-02-24 01:36 am E 4.1 5.1----30.06-------
2024-02-24 01:30 am NE 5.1 8.0------------
2024-02-24 01:24 am NE 4.1 7.0------------
2024-02-24 01:18 amNNE 6.0 7.0------------
2024-02-24 01:12 amENE 7.0 11.1----30.06- 58.1-----
2024-02-24 01:06 am NE 8.9 8.9----30.06- 57.7-----
2024-02-24 01:00 am NE 7.0 9.9----30.06+0.00 57.0-----
2024-02-24 12:54 am NE 8.0 9.9----30.06- 57.0-----
2024-02-24 12:48 am NE 8.0 9.9----30.06- 56.8-----
2024-02-24 12:42 am NE 7.0 8.9----30.06- 56.7-----
2024-02-24 12:36 am E 2.9 5.1----30.06- 55.9-----
2024-02-24 12:30 am E 1.9 5.1----30.07-------
2024-02-24 12:24 am E 2.9 5.1----30.07-------
2024-02-24 12:18 am SE 2.9 5.1----30.07-------
2024-02-24 12:12 amESE 1.9 2.9----30.07-------
2024-02-24 12:06 am S 1.9 1.9----30.07-------
2024-02-24 12:00 am SE 1.0 1.9------------
2024-02-23 11:54 pmENE 1.0 2.9------------
2024-02-23 11:48 pm S 1.0 1.9----30.07-------
2024-02-23 11:42 pm E 1.0 2.9----30.07-------
2024-02-23 11:36 pm E 2.9 4.1----30.07-------
2024-02-23 11:30 pm E 2.9 5.1----30.07-------
2024-02-23 11:24 pm E 4.1 5.1----30.07-------
2024-02-23 11:18 pmESE 4.1 5.1----30.07-------
2024-02-23 11:12 pm E 4.1 5.1----30.07- 56.1-----
2024-02-23 11:06 pm E 4.1 5.1----30.07- 57.0-----
2024-02-23 11:00 pm-------30.07+0.00 57.0-----
2024-02-23 10:54 pm-------30.07- 57.7-----
2024-02-23 10:48 pm NE 1.9 5.1----30.06-------
2024-02-23 10:42 pm SE 1.9 5.1----30.06-------
2024-02-23 10:36 pmNNE 5.1 6.0----30.06-------
2024-02-23 10:30 pm-------30.06- 57.6-----
2024-02-23 10:24 pm-------30.07- 57.0-----
2024-02-23 10:18 pmESE 4.1 5.1----30.07-------
2024-02-23 10:12 pm E 2.9 4.1----30.07-------
2024-02-23 10:06 pm E 4.1 5.1----30.07-------
2024-02-23 10:00 pm SE 2.9 2.9----30.07+0.00 55.6-----
2024-02-23 09:54 pm SE 1.0 2.9----30.07- 55.6-----
2024-02-23 09:48 pmESE 1.9 1.9----30.07-------
2024-02-23 09:42 pm SE 1.0 1.9----30.07-------
2024-02-23 09:36 pm SE 1.9 4.1----30.07-------
2024-02-23 09:30 pm E 5.1 5.1----30.07- 56.8-----
2024-02-23 09:24 pmESE 4.1 5.1----30.06- 56.5-----
2024-02-23 09:18 pmESE 2.9 4.1----30.06- 55.8-----
2024-02-23 09:12 pm E 2.9 4.1----30.06- 56.1-----
2024-02-23 09:06 pm E 4.1 5.1----30.06- 57.0-----
2024-02-23 09:00 pmESE 4.1 5.1----30.06+0.01------
2024-02-23 08:54 pm E 4.1 7.0----30.06-------